Location: Unspecified
(0.0000°N, 0.0000°E)
Time: 07:10:24
(UTC+00:00)

X-37B - Pass Details

Date: 25 November 2020
Orbit: 384 x 389 km, 45.0° (Epoch: 12 November)

Event Time Altitude Azimuth Distance (km) Brightness Sun altitude
Exits shadow 03:40:15 14° 116° (ESE) 1,201 3.9 -29.4°
Drops below altitude 10° 03:40:47 10° 119° (ESE) 1,404 4.3 -29.3°
Sets 03:42:55 0° 127° (SE) 2,261 5.6 -28.8°
